DW7512 Weather Reports


Display with metric or nautical units.
time (UTC)temp
F
wind
direction
speed
MPH
gust
MPH
rain 1hr
in
rain 24hr
in
rain mn
in
humidity
%
barometer
mb
20260504081551 51 196 3.0 7.0 0.00 0.02 0.00 49 1004.3
20260504081517 50 173 3.0 7.0 0.00 0.02 0.00 49 1005.1
20260504080519 51 216 4.0 7.0 0.00 0.02 0.00 49 1004.4
20260504050251 55 226 3.0 6.0 0.00 0.02 0.00 45 1006.2
20260504050012 55 193 3.0 6.0 0.00 0.02 0.00 45 1006.9
20260504045732 55 220 3.0 6.0 0.00 0.02 0.02 45 1006.2
20260504045226 55 202 4.0 6.0 0.00 0.02 0.02 45 1006.2
20260504044702 56 226 3.0 6.0 0.00 0.02 0.02 45 1006.2
20260504044510 55 215 2.0 7.0 0.00 0.02 0.02 45 1006.9
20260504043632 56 231 3.0 9.0 0.00 0.02 0.02 45 1006.2
20260504043131 56 223 4.0 9.0 0.00 0.02 0.02 45 1006.2
20260504043010 55 234 3.0 9.0 0.00 0.02 0.02 45 1006.9
20260504042601 56 189 4.0 8.0 0.00 0.02 0.02 46 1006.2
20260504042101 56 231 4.0 7.0 0.00 0.02 0.02 46 1006.2
20260504041601 56 226 4.0 9.0 0.00 0.02 0.02 46 1006.1
20260504041504 55 195 3.0 9.0 0.00 0.02 0.02 45 1006.9
20260504041103 56 173 4.0 9.0 0.00 0.02 0.02 46 1006.1
20260504040539 56 213 5.0 10.0 0.00 0.02 0.02 46 1006.1
20260504040015 55 187 4.0 10.0 0.00 0.02 0.02 45 1006.9
20260504040009 56 198 5.0 10.0 0.00 0.02 0.02 46 1006.1
20260504035500 56 207 4.0 8.0 0.00 0.02 0.02 46 1006.2
20260504035000 56 253 4.0 8.0 0.00 0.02 0.02 46 1006.2
20260504034516 56 221 3.0 10.0 0.00 0.02 0.02 45 1007.0
20260504034450 56 250 4.0 10.0 0.00 0.02 0.02 46 1006.2
20260504033420 57 187 4.0 8.0 0.00 0.02 0.02 46 1006.3
20260504033004 56 214 5.0 8.0 0.00 0.02 0.02 45 1007.1
20260504032919 57 211 4.0 8.0 0.00 0.02 0.02 45 1006.3
20260504032351 57 236 4.0 8.0 0.00 0.02 0.02 45 1006.3
20260504031843 57 225 4.0 8.0 0.00 0.02 0.02 45 1006.3
20260504031511 57 190 5.0 9.0 0.00 0.02 0.02 45 1007.0
20260504031321 57 216 4.0 9.0 0.00 0.02 0.02 45 1006.2
20260504030819 57 137 4.0 9.0 0.00 0.02 0.02 45 1006.2
20260504030305 57 187 4.0 10.0 0.00 0.02 0.02 45 1006.2
20260504030008 57 191 3.0 10.0 0.00 0.02 0.02 45 1007.0
20260504025806 58 203 4.0 10.0 0.00 0.02 0.02 45 1006.2
20260504025245 58 212 4.0 9.0 0.00 0.02 0.02 45 1006.3
20260504024747 58 218 4.0 7.0 0.00 0.02 0.02 45 1006.2
20260504024506 57 202 4.0 8.0 0.00 0.02 0.02 44 1007.0
20260504024233 58 194 4.0 8.0 0.00 0.02 0.02 45 1006.2
20260504023731 58 218 3.0 7.0 0.00 0.02 0.02 44 1006.2
20260504023215 58 194 3.0 7.0 0.00 0.02 0.02 44 1006.2
20260504023020 58 162 3.0 7.0 0.00 0.02 0.02 44 1006.9
20260504022715 59 174 4.0 7.0 0.00 0.02 0.02 44 1006.1
20260504022217 59 151 4.0 8.0 0.00 0.02 0.02 44 1006.0
20260504021509 59 225 4.0 9.0 0.00 0.02 0.02 43 1006.7
20260504021138 59 164 4.0 8.0 0.00 0.02 0.02 44 1005.9
20260504020637 60 182 4.0 8.0 0.00 0.02 0.02 43 1005.9
20260504020108 60 183 4.0 9.0 0.00 0.02 0.02 43 1005.9
20260504020007 60 178 3.0 9.0 0.00 0.02 0.02 43 1006.6
20260504015607 60 159 4.0 9.0 0.00 0.02 0.02 43 1005.8
20260504015039 61 182 4.0 10.0 0.00 0.02 0.02 43 1005.8
20260504014534 61 167 4.0 10.0 0.00 0.02 0.02 42 1005.8
20260504014510 61 167 3.0 11.0 0.00 0.02 0.02 42 1006.6
20260504014011 61 197 4.0 9.0 0.00 0.02 0.02 42 1005.8
20260504013008 61 212 4.0 9.0 0.00 0.02 0.02 41 1006.5
20260504012406 62 194 4.0 8.0 0.00 0.02 0.02 41 1005.6
20260504011507 63 207 4.0 10.0 0.00 0.02 0.02 39 1006.4
20260504011336 64 187 4.0 9.0 0.00 0.02 0.02 40 1005.6
20260504010813 64 186 4.0 11.0 0.00 0.02 0.02 38 1005.6
20260504010020 64 221 4.0 11.0 0.00 0.02 0.02 37 1006.5
20260504005738 65 198 6.0 11.0 0.00 0.02 0.02 38 1005.8
20260504005204 65 231 6.0 11.0 0.00 0.02 0.02 37 1005.8
20260504004700 65 203 6.0 11.0 0.00 0.02 0.02 37 1005.6
20260504004524 65 244 5.0 12.0 0.00 0.02 0.02 36 1006.6
20260504003635 66 149 5.0 13.0 0.00 0.02 0.02 36 1005.8
20260504003107 66 238 5.0 13.0 0.00 0.02 0.02 35 1005.8
20260504003013 66 178 4.0 14.0 0.00 0.02 0.02 35 1006.7
20260504002605 67 206 6.0 15.0 0.00 0.02 0.02 35 1005.8
20260504002036 67 184 7.0 15.0 0.00 0.02 0.02 35 1005.8
20260504001529 67 165 8.0 17.0 0.00 0.02 0.02 34 1006.6
20260504001458 67 236 8.0 17.0 0.00 0.02 0.02 34 1005.8
20260504000016 67 225 8.0 21.0 0.00 0.02 0.02 33 1006.6
20260503234909 68 223 8.0 17.0 0.00 0.02 0.02 32 1005.6
20260503234516 68 196 9.0 18.0 0.00 0.02 0.02 32 1006.5
20260503234351 68 215 10.0 20.0 0.00 0.02 0.02 32 1005.6
20260503233854 68 240 10.0 20.0 0.00 0.02 0.02 32 1005.6
20260503233328 68 257 12.0 22.0 0.00 0.02 0.02 32 1005.8
20260503233012 68 234 9.0 25.0 0.00 0.02 0.02 31 1006.5
20260503232755 69 202 12.0 24.0 0.00 0.02 0.02 31 1005.6
20260503232253 69 219 10.0 20.0 0.00 0.02 0.02 32 1005.8
20260503231750 69 218 8.0 20.0 0.00 0.02 0.02 32 1005.6
20260503231516 68 229 8.0 19.0 0.00 0.02 0.02 30 1006.5
20260503231242 69 214 7.0 17.0 0.00 0.02 0.02 30 1005.8
20260503230719 69 239 8.0 17.0 0.00 0.02 0.02 31 1005.8
20260503230146 69 236 7.0 17.0 0.00 0.02 0.02 31 1005.9
20260503230022 69 205 9.0 16.0 0.00 0.02 0.02 31 1006.6
20260503225649 69 239 8.0 17.0 0.00 0.02 0.02 31 1005.8
20260503225120 69 209 9.0 18.0 0.00 0.02 0.02 30 1005.9
20260503224619 69 236 8.0 18.0 0.00 0.02 0.02 30 1005.9
20260503224504 69 221 10.0 18.0 0.00 0.02 0.02 30 1006.7
20260503224103 69 213 8.0 18.0 0.00 0.02 0.02 31 1005.8
20260503223606 69 230 8.0 18.0 0.00 0.02 0.02 30 1005.9
20260503223031 69 226 8.0 19.0 0.00 0.02 0.02 31 1005.8
20260503223007 69 269 6.0 20.0 0.00 0.02 0.02 30 1006.7
20260503222528 69 228 9.0 19.0 0.00 0.02 0.02 30 1005.9
20260503222003 69 207 9.0 24.0 0.00 0.02 0.02 30 1005.9
20260503221512 69 234 7.0 24.0 0.00 0.02 0.02 30 1006.6
20260503221440 70 236 9.0 24.0 0.00 0.02 0.02 30 1005.8
20260503220406 70 250 10.0 20.0 0.00 0.02 0.02 30 1006.0
20260503220012 69 211 8.0 20.0 0.00 0.02 0.02 30 1006.9
20260503215326 70 213 10.0 22.0 0.00 0.02 0.02 29 1006.1
20260503214809 70 220 10.0 19.0 0.00 0.02 0.02 29 1006.1
20260503214507 70 221 11.0 18.0 0.00 0.02 0.02 28 1006.9
20260503214240 70 220 9.0 20.0 0.00 0.02 0.02 29 1006.1
20260503213739 70 197 10.0 21.0 0.00 0.02 0.02 30 1006.2
20260503213005 70 242 9.0 23.0 0.00 0.02 0.02 30 1006.9
20260503212709 71 288 11.0 22.0 0.00 0.02 0.02 29 1006.2
20260503212133 71 296 10.0 23.0 0.00 0.02 0.02 28 1006.2
20260503211624 71 227 9.0 23.0 0.00 0.02 0.02 28 1006.2
20260503211504 71 214 9.0 20.0 0.00 0.02 0.02 28 1007.0
20260503210122 71 279 10.0 22.0 0.00 0.02 0.02 28 1006.3
20260503210006 70 213 9.0 23.0 0.00 0.02 0.02 27 1007.1
20260503205553 71 231 10.0 24.0 0.00 0.02 0.02 27 1006.5
20260503204524 71 245 12.0 26.0 0.00 0.02 0.02 29 1006.5
20260503204504 70 232 9.0 26.0 0.00 0.02 0.02 29 1007.3
20260503204027 71 232 10.0 26.0 0.00 0.02 0.02 27 1006.7
20260503203453 71 227 10.0 22.0 0.00 0.02 0.02 29 1006.6
20260503203006 70 218 11.0 24.0 0.00 0.02 0.02 28 1007.6
20260503202950 71 183 13.0 26.0 0.00 0.02 0.02 29 1006.8
20260503201945 70 226 12.0 32.0 0.00 0.02 0.02 28 1006.8
20260503201508 70 259 8.0 26.0 0.00 0.02 0.02 28 1007.6
20260503200349 69 211 13.0 29.0 0.00 0.02 0.02 29 1007.2
20260503200008 68 186 11.0 24.0 0.00 0.02 0.02 28 1007.9
20260503195851 69 202 12.0 25.0 0.00 0.02 0.02 29 1007.2
20260503195346 69 234 13.0 24.0 0.00 0.02 0.02 29 1007.3
20260503194838 69 219 13.0 24.0 0.00 0.02 0.02 29 1007.4
20260503194508 68 216 14.0 24.0 0.00 0.02 0.02 29 1008.1
20260503193840 69 183 13.0 27.0 0.00 0.02 0.02 29 1007.4
20260503193307 68 204 13.0 27.0 0.00 0.02 0.02 29 1007.7
20260503193006 68 185 16.0 27.0 0.00 0.02 0.02 29 1008.4
20260503192805 68 218 12.0 27.0 0.00 0.02 0.02 30 1007.7
20260503192259 67 183 13.0 27.0 0.00 0.02 0.02 32 1007.8
20260503191505 66 209 14.0 33.0 0.00 0.02 0.02 30 1008.8
20260503191229 66 219 15.0 29.0 0.00 0.02 0.02 30 1008.1
20260503190659 66 186 15.0 29.0 0.00 0.02 0.02 30 1008.1
20260503190158 67 203 14.0 27.0 0.00 0.02 0.02 30 1008.2
20260503190016 66 212 14.0 27.0 0.00 0.02 0.02 29 1009.0
20260503185632 67 160 15.0 34.0 0.00 0.02 0.02 30 1008.2
20260503185108 67 185 16.0 34.0 0.00 0.02 0.02 29 1008.4
20260503184602 67 181 15.0 29.0 0.00 0.02 0.02 29 1008.4
20260503184516 66 175 16.0 34.0 0.00 0.02 0.02 30 1009.2
20260503184039 66 214 14.0 29.0 0.00 0.02 0.02 30 1008.4
20260503183538 66 165 16.0 31.0 0.00 0.02 0.02 30 1008.8
20260503183012 65 205 17.0 31.0 0.00 0.02 0.02 28 1009.6
20260503182502 65 173 15.0 29.0 0.00 0.02 0.02 30 1008.8
20260503181517 64 221 17.0 34.0 0.00 0.02 0.02 33 1009.9
20260503181430 65 176 17.0 33.0 0.00 0.02 0.02 33 1009.0
20260503180929 64 199 17.0 33.0 0.00 0.02 0.02 33 1009.1
20260503180421 64 162 16.0 26.0 0.00 0.02 0.02 33 1009.1
20260503180014 64 173 17.0 29.0 0.00 0.02 0.02 33 1009.9
20260503175358 64 142 15.0 27.0 0.00 0.02 0.02 35 1009.2
20260503174842 63 184 16.0 27.0 0.00 0.02 0.02 38 1009.2
20260503174514 62 168 17.0 34.0 0.00 0.02 0.02 36 1010.1
20260503174318 62 176 16.0 29.0 0.00 0.02 0.02 38 1009.3
20260503173809 62 186 16.0 29.0 0.00 0.02 0.02 38 1009.4
20260503173251 62 176 17.0 26.0 0.00 0.02 0.02 40 1009.6
20260503173016 61 218 18.0 31.0 0.00 0.02 0.02 38 1010.2
20260503172740 61 173 17.0 27.0 0.00 0.02 0.02 42 1009.6
20260503172232 61 186 17.0 27.0 0.00 0.02 0.02 41 1009.9
20260503171707 60 157 16.0 25.0 0.00 0.02 0.02 42 1009.9
20260503171524 60 180 20.0 29.0 0.00 0.02 0.02 41 1010.7
20260503170616 59 178 13.0 22.0 0.00 0.02 0.02 43 1010.3
20260503150636 49 201 7.0 13.0 0.00 0.02 0.02 54 1012.8
20260503140259 47 181 6.0 10.0 0.00 0.02 0.02 54 1013.7
20260503131147 46 202 3.0 6.0 0.02 0.02 0.02 57 1014.5
20260503130635 46 238 3.0 7.0 0.02 0.02 0.02 57 1014.5
20260503130131 46 218 3.0 6.0 0.02 0.02 0.02 57 1014.5
20260503110705 43 164 5.0 9.0 0.00 0.00 0.00 52 1013.5
20260503110140 43 175 5.0 8.0 0.00 0.00 0.00 52 1013.6